• In Russia
  • List of Countries
  • For 7 days
  • Water Temperature
  • Satellite Maps
  • Weather Map
  • Weather Widgets
  • user-avatar
    Login

    Hourly Weather Wlora

    Today, 21 January, Saturday

    Time Temperature Precipitation Wind Pressure Humidity
    00:00 +4°C° 0 mm 4 mps 771 mmHg 76%
    01:00 +4°C° 0 mm 4 mps 771 mmHg 75%
    02:00 +4°C° 0 mm 4 mps 771 mmHg 74%
    03:00 +4°C° 0 mm 4 mps 771 mmHg 74%
    04:00 +4°C° 0 mm 4 mps 771 mmHg 74%
    05:00 +4°C° 0 mm 4 mps 771 mmHg 73%
    06:00 +4°C° 0 mm 4 mps 771 mmHg 72%
    07:00 +4°C° 0 mm 3 mps 771 mmHg 72%
    08:00 +5°C° 0 mm 3 mps 771 mmHg 67%
    09:00 +8°C° 0 mm 3 mps 771 mmHg 62%
    10:00 +10°C° 0 mm 3 mps 771 mmHg 58%
    11:00 +10°C° 0 mm 2 mps 771 mmHg 55%
    12:00 +12°C° 0 mm 2 mps 770 mmHg 53%
    13:00 +13°C° 0 mm 1 mps 770 mmHg 51%
    14:00 +13°C° 0 mm 1 mps 770 mmHg 56%
    15:00 +12°C° 0 mm 1 mps 770 mmHg 62%
    16:00 +11°C° 0 mm 1 mps 770 mmHg 67%
    17:00 +10°C° 0 mm 1 mps 770 mmHg 70%
    18:00 +8°C° 0 mm 2 mps 770 mmHg 72%
    19:00 +8°C° 0 mm 2 mps 770 mmHg 74%
    20:00 +7°C° 0 mm 2 mps 770 mmHg 75%
    21:00 +7°C° 0 mm 2 mps 770 mmHg 76%
    22:00 +6°C° 0 mm 2 mps 771 mmHg 77%
    23:00 +5°C° 0 mm 3 mps 771 mmHg 76%

    Tomorrow, 22 January, Sunday

    Time Temperature Precipitation Wind Pressure Humidity
    00:00 +5°C° 0 mm 3 mps 771 mmHg 76%
    01:00 +5°C° 0 mm 3 mps 771 mmHg 75%
    02:00 +4°C° 0 mm 3 mps 770 mmHg 74%
    03:00 +4°C° 0 mm 3 mps 770 mmHg 73%
    04:00 +4°C° 0 mm 3 mps 770 mmHg 73%
    05:00 +4°C° 0 mm 3 mps 770 mmHg 72%
    06:00 +4°C° 0 mm 3 mps 771 mmHg 72%
    07:00 +4°C° 0 mm 3 mps 771 mmHg 71%
    08:00 +7°C° 0 mm 3 mps 771 mmHg 67%
    09:00 +8°C° 0 mm 3 mps 771 mmHg 63%
    10:00 +10°C° 0 mm 3 mps 771 mmHg 59%
    11:00 +11°C° 0 mm 3 mps 770 mmHg 56%
    12:00 +12°C° 0 mm 3 mps 770 mmHg 54%
    13:00 +12°C° 0 mm 3 mps 770 mmHg 51%
    14:00 +12°C° 0 mm 3 mps 770 mmHg 56%
    15:00 +12°C° 0 mm 2 mps 769 mmHg 60%
    16:00 +10°C° 0 mm 2 mps 769 mmHg 65%
    17:00 +9°C° 0 mm 3 mps 770 mmHg 68%
    18:00 +8°C° 0 mm 3 mps 770 mmHg 70%
    19:00 +7°C° 0 mm 3 mps 770 mmHg 72%
    20:00 +7°C° 0 mm 3 mps 770 mmHg 73%
    21:00 +5°C° 0 mm 4 mps 770 mmHg 73%
    22:00 +5°C° 0 mm 4 mps 770 mmHg 74%
    23:00 +5°C° 0 mm 4 mps 770 mmHg 72%

    Day after tomorrow, 23 January, Monday

    Time Temperature Precipitation Wind Pressure Humidity
    00:00 +5°C° 0 mm 4 mps 769 mmHg 70%
    01:00 +5°C° 0 mm 5 mps 769 mmHg 69%
    02:00 +5°C° 0 mm 5 mps 769 mmHg 69%
    03:00 +3°C° 0 mm 5 mps 768 mmHg 70%
    04:00 +3°C° 0 mm 5 mps 768 mmHg 70%
    05:00 +3°C° 0 mm 5 mps 768 mmHg 71%
    06:00 +3°C° 0 mm 5 mps 767 mmHg 71%
    07:00 +3°C° 0 mm 5 mps 767 mmHg 71%
    08:00 +5°C° 0 mm 5 mps 767 mmHg 68%
    09:00 +7°C° 0 mm 5 mps 767 mmHg 64%
    10:00 +8°C° 0 mm 5 mps 767 mmHg 60%
    11:00 +9°C° 0.1 mm 5 mps 766 mmHg 59%
    12:00 +10°C° 0.1 mm 5 mps 766 mmHg 58%
    13:00 +12°C° 0.1 mm 5 mps 765 mmHg 57%
    14:00 +11°C° 0.1 mm 4 mps 765 mmHg 61%
    15:00 +10°C° 0.1 mm 4 mps 764 mmHg 65%
    16:00 +10°C° 0.1 mm 4 mps 764 mmHg 70%
    17:00 +8°C° 0.8 mm 5 mps 764 mmHg 73%
    18:00 +8°C° 0.8 mm 5 mps 764 mmHg 76%
    19:00 +7°C° 0.8 mm 6 mps 763 mmHg 79%
    20:00 +7°C° 0.7 mm 6 mps 763 mmHg 80%
    21:00 +5°C° 0.7 mm 6 mps 763 mmHg 82%
    22:00 +5°C° 0.7 mm 6 mps 763 mmHg 83%
    23:00 +5°C° 0.6 mm 6 mps 763 mmHg 83%

    24 January, Tuesday

    Time Temperature Precipitation Wind Pressure Humidity
    00:00 +5°C° 0.6 mm 6 mps 762 mmHg 84%
    01:00 +5°C° 0.6 mm 6 mps 762 mmHg 85%
    02:00 +5°C° 0.9 mm 6 mps 761 mmHg 86%
    03:00 +5°C° 0.9 mm 6 mps 761 mmHg 86%
    04:00 +5°C° 0.9 mm 6 mps 760 mmHg 86%
    05:00 +6°C° 0.7 mm 5 mps 760 mmHg 87%
    06:00 +6°C° 0.7 mm 4 mps 760 mmHg 87%
    07:00 +6°C° 0.7 mm 4 mps 760 mmHg 87%
    08:00 +7°C° 1.2 mm 3 mps 760 mmHg 87%
    09:00 +7°C° 1.2 mm 3 mps 761 mmHg 88%
    10:00 +7°C° 1.2 mm 3 mps 761 mmHg 88%
    11:00 +7°C° 1.1 mm 3 mps 760 mmHg 87%
    12:00 +8°C° 1.1 mm 2 mps 760 mmHg 87%
    13:00 +8°C° 1.1 mm 2 mps 760 mmHg 86%
    14:00 +8°C° 0.6 mm 2 mps 760 mmHg 87%
    15:00 +8°C° 0.6 mm 2 mps 760 mmHg 87%
    16:00 +9°C° 0.6 mm 1 mps 760 mmHg 88%
    17:00 +8°C° 0.3 mm 2 mps 760 mmHg 88%
    18:00 +7°C° 0.3 mm 2 mps 760 mmHg 89%
    19:00 +7°C° 0.3 mm 2 mps 760 mmHg 89%
    20:00 +7°C° 0.5 mm 2 mps 760 mmHg 89%
    21:00 +7°C° 0.5 mm 2 mps 760 mmHg 89%
    22:00 +7°C° 0.5 mm 2 mps 761 mmHg 89%
    23:00 +7°C° 0.4 mm 2 mps 761 mmHg 89%

    25 January, Wednesday

    Time Temperature Precipitation Wind Pressure Humidity
    00:00 +7°C° 0.4 mm 2 mps 761 mmHg 88%
    01:00 +7°C° 0.4 mm 2 mps 761 mmHg 88%
    02:00 +7°C° 0.4 mm 2 mps 761 mmHg 87%
    03:00 +6°C° 0.4 mm 2 mps 761 mmHg 87%
    04:00 +6°C° 0.4 mm 2 mps 761 mmHg 87%
    05:00 +6°C° 0.2 mm 2 mps 761 mmHg 86%
    06:00 +5°C° 0.2 mm 3 mps 762 mmHg 86%
    07:00 +5°C° 0.2 mm 3 mps 762 mmHg 85%
    08:00 +7°C° 0 mm 3 mps 762 mmHg 82%
    09:00 +7°C° 0 mm 3 mps 763 mmHg 78%
    10:00 +8°C° 0 mm 3 mps 763 mmHg 75%
    11:00 +9°C° 0 mm 3 mps 763 mmHg 73%
    12:00 +9°C° 0 mm 3 mps 763 mmHg 71%
    13:00 +10°C° 0 mm 3 mps 763 mmHg 69%
    14:00 +10°C° 0 mm 3 mps 763 mmHg 71%
    15:00 +9°C° 0 mm 3 mps 763 mmHg 72%
    16:00 +9°C° 0 mm 3 mps 764 mmHg 74%
    17:00 +9°C° 0 mm 3 mps 764 mmHg 75%
    18:00 +8°C° 0 mm 3 mps 765 mmHg 77%
    19:00 +6°C° 0 mm 4 mps 765 mmHg 78%
    20:00 +6°C° 0 mm 4 mps 765 mmHg 79%
    21:00 +5°C° 0 mm 4 mps 766 mmHg 80%
    22:00 +5°C° 0 mm 4 mps 766 mmHg 80%
    23:00 +4°C° 0 mm 4 mps 766 mmHg 80%

    26 January, Thursday

    Time Temperature Precipitation Wind Pressure Humidity
    00:00 +4°C° 0 mm 4 mps 766 mmHg 80%
    01:00 +4°C° 0 mm 4 mps 766 mmHg 80%
    02:00 +4°C° 0 mm 4 mps 766 mmHg 79%
    03:00 +4°C° 0 mm 4 mps 766 mmHg 79%
    04:00 +4°C° 0 mm 4 mps 766 mmHg 78%
    05:00 +4°C° 0 mm 4 mps 766 mmHg 79%
    06:00 +3°C° 0 mm 4 mps 766 mmHg 80%
    07:00 +3°C° 0 mm 4 mps 767 mmHg 80%
    08:00 +4°C° 0 mm 4 mps 767 mmHg 77%
    09:00 +5°C° 0 mm 4 mps 767 mmHg 75%
    10:00 +6°C° 0 mm 4 mps 767 mmHg 72%
    11:00 +6°C° 0 mm 4 mps 767 mmHg 70%
    12:00 +7°C° 0 mm 4 mps 767 mmHg 69%
    13:00 +8°C° 0 mm 3 mps 767 mmHg 67%
    14:00 +8°C° 0 mm 3 mps 767 mmHg 69%
    15:00 +8°C° 0 mm 3 mps 767 mmHg 71%
    16:00 +8°C° 0 mm 3 mps 767 mmHg 72%
    17:00 +7°C° 0 mm 3 mps 767 mmHg 74%
    18:00 +5°C° 0 mm 3 mps 768 mmHg 76%
    19:00 +4°C° 0 mm 4 mps 768 mmHg 78%
    20:00 +4°C° 0 mm 4 mps 768 mmHg 78%
    21:00 +4°C° 0 mm 4 mps 769 mmHg 79%
    22:00 +3°C° 0 mm 4 mps 769 mmHg 79%
    23:00 +3°C° 0 mm 4 mps 769 mmHg 79%
    Show more